{"data":{"norad_id":56813,"epoch":"2026-09-20T05:19:36.648480Z","epoch_age_seconds":141954,"freshness":"FRESH","line1":"1 56813U 23078AY  26263.22195195 -.00000677  00000+0 -48952-4 0  9999","line2":"2 56813  69.9999 213.7930 0003245 268.4623  91.6164 14.98332853181829","mean_motion":14.98332853,"eccentricity":0.0003245,"inclination_deg":69.9999,"raan_deg":213.793,"arg_perigee_deg":268.4623,"mean_anomaly_deg":91.6164,"bstar":-4.8952e-5,"rev_number":18182,"period_min":96.10681612679,"perigee_km":569.7917335611,"apogee_km":574.30240302142,"semimajor_km":6950.1840682913,"source":"CELESTRAK","updated_at":"2026-09-21T09:00:33.513370Z"}}